| time (UTC) | temp F | wind direction | speed knots | gust knots | rain 1hr in | rain 24hr in | rain mn in | humidity % | barometer mb |
| 20260508013006 | 64 | 120 | 0.9 | 1.7 | 0.00 | 0.00 | 0.00 | 75 | 1016.8 |
| 20260508012505 | 65 | 138 | 0.9 | 1.7 | 0.00 | 0.00 | 0.00 | 75 | 1017.0 |
| 20260508012005 | 65 | 137 | 0.9 | 0.9 | 0.00 | 0.00 | 0.00 | 75 | 1017.0 |
| 20260508011506 | 65 | 126 | 1.7 | 2.6 | 0.00 | 0.00 | 0.00 | 75 | 1016.8 |
| 20260508011005 | 65 | 126 | 0.9 | 2.6 | 0.00 | 0.00 | 0.00 | 75 | 1017.1 |
| 20260508010505 | 65 | 129 | 0.9 | 1.7 | 0.00 | 0.00 | 0.00 | 75 | 1017.0 |
| 20260508010006 | 65 | 118 | 0.9 | 1.7 | 0.00 | 0.00 | 0.00 | 74 | 1016.9 |
| 20260508005507 | 65 | 108 | 0.9 | 0.9 | 0.00 | 0.00 | 0.00 | 73 | 1017.0 |
| 20260508005005 | 65 | 116 | 0.9 | 1.7 | 0.00 | 0.00 | 0.00 | 72 | 1017.0 |
| 20260508004005 | 65 | 15 | 1.7 | 1.7 | 0.00 | 0.00 | 0.00 | 71 | 1017.1 |
| 20260508002505 | 65 | 148 | 0.9 | 1.7 | 0.00 | 0.00 | 0.00 | 71 | 1017.2 |
| 20260508002005 | 65 | 217 | 0.9 | 1.7 | 0.00 | 0.00 | 0.00 | 71 | 1017.4 |
| 20260508001506 | 65 | 35 | 0.9 | 0.9 | 0.00 | 0.00 | 0.00 | 72 | 1017.4 |
| 20260508001006 | 65 | 59 | 0.9 | 0.9 | 0.00 | 0.00 | 0.00 | 71 | 1017.3 |
| 20260508000505 | 65 | 80 | 0.9 | 0.9 | 0.00 | 0.00 | 0.00 | 71 | 1017.3 |
| 20260507235506 | 65 | 175 | 0.9 | 1.7 | 0.00 | 0.00 | 0.00 | 72 | 1017.5 |
| 20260507235006 | 65 | 53 | 0.0 | 0.9 | 0.00 | 0.00 | 0.00 | 73 | 1017.6 |
| 20260507233507 | 65 | 155 | 0.9 | 0.9 | 0.00 | 0.00 | 0.00 | 73 | 1017.7 |
| 20260507233006 | 65 | 184 | 0.9 | 0.9 | 0.00 | 0.00 | 0.00 | 73 | 1018.0 |
| 20260507232505 | 65 | 185 | 0.9 | 1.7 | 0.00 | 0.00 | 0.00 | 73 | 1017.9 |
| 20260507232005 | 65 | 165 | 0.9 | 1.7 | 0.00 | 0.00 | 0.00 | 72 | 1018.0 |
| 20260507231507 | 65 | 142 | 0.9 | 1.7 | 0.00 | 0.00 | 0.00 | 72 | 1018.1 |
| 20260507231005 | 65 | 90 | 1.7 | 2.6 | 0.00 | 0.00 | 0.00 | 72 | 1018.0 |
| 20260507230505 | 65 | 70 | 1.7 | 2.6 | 0.00 | 0.00 | 0.00 | 71 | 1018.1 |
| 20260507230006 | 66 | 131 | 0.9 | 1.7 | 0.00 | 0.00 | 0.00 | 71 | 1018.0 |
| 20260507225505 | 66 | 216 | 0.0 | 0.9 | 0.00 | 0.00 | 0.00 | 71 | 1017.9 |
| 20260507225005 | 66 | 220 | 0.0 | 0.9 | 0.00 | 0.00 | 0.00 | 71 | 1018.2 |
| 20260507224506 | 66 | 205 | 0.9 | 0.9 | 0.00 | 0.00 | 0.00 | 71 | 1018.1 |
| 20260507224006 | 66 | 213 | 0.9 | 0.9 | 0.00 | 0.00 | 0.00 | 70 | 1018.2 |
| 20260507223508 | 66 | 227 | 1.7 | 2.6 | 0.00 | 0.00 | 0.00 | 70 | 1018.2 |
| 20260507223006 | 66 | 215 | 1.7 | 2.6 | 0.00 | 0.00 | 0.00 | 70 | 1018.2 |
| 20260507222506 | 66 | 227 | 1.7 | 2.6 | 0.00 | 0.00 | 0.00 | 71 | 1018.2 |
| 20260507222008 | 66 | 248 | 0.9 | 1.7 | 0.00 | 0.00 | 0.00 | 72 | 1018.2 |
| 20260507221505 | 66 | 31 | 0.9 | 0.9 | 0.00 | 0.00 | 0.00 | 72 | 1018.3 |
| 20260507221006 | 65 | 43 | 0.9 | 0.9 | 0.00 | 0.00 | 0.00 | 72 | 1018.4 |
| 20260507220505 | 65 | 25 | 0.9 | 0.9 | 0.00 | 0.00 | 0.00 | 73 | 1018.3 |
| 20260507220005 | 65 | 45 | 0.9 | 1.7 | 0.00 | 0.00 | 0.00 | 73 | 1018.2 |
| 20260507215506 | 65 | 65 | 0.9 | 1.7 | 0.00 | 0.00 | 0.00 | 73 | 1018.4 |
| 20260507215005 | 65 | 33 | 0.9 | 0.9 | 0.00 | 0.00 | 0.00 | 73 | 1018.4 |
| 20260507214505 | 66 | 67 | 1.7 | 2.6 | 0.00 | 0.00 | 0.00 | 72 | 1018.4 |
| 20260507214006 | 66 | 87 | 1.7 | 2.6 | 0.00 | 0.00 | 0.00 | 72 | 1018.3 |
| 20260507213005 | 67 | 215 | 0.9 | 1.7 | 0.00 | 0.00 | 0.00 | 70 | 1018.4 |
| 20260507212505 | 67 | 214 | 0.9 | 1.7 | 0.00 | 0.00 | 0.00 | 69 | 1018.6 |
| 20260507212006 | 67 | 328 | 0.9 | 1.7 | 0.00 | 0.00 | 0.00 | 68 | 1018.5 |
| 20260507211506 | 67 | 343 | 0.9 | 0.9 | 0.00 | 0.00 | 0.00 | 67 | 1018.6 |
| 20260507211005 | 67 | 227 | 0.9 | 1.7 | 0.00 | 0.00 | 0.00 | 68 | 1018.7 |
| 20260507210506 | 67 | 186 | 0.9 | 1.7 | 0.00 | 0.00 | 0.00 | 68 | 1018.8 |
| 20260507210007 | 67 | 92 | 0.9 | 2.6 | 0.00 | 0.00 | 0.00 | 69 | 1018.7 |
| 20260507205505 | 67 | 91 | 1.7 | 2.6 | 0.00 | 0.00 | 0.00 | 69 | 1018.6 |
| 20260507204509 | 67 | 215 | 0.9 | 1.7 | 0.00 | 0.00 | 0.00 | 69 | 1018.8 |
| 20260507204005 | 67 | 203 | 0.9 | 1.7 | 0.00 | 0.00 | 0.00 | 69 | 1019.0 |
| 20260507203006 | 67 | 116 | 0.9 | 0.9 | 0.00 | 0.00 | 0.00 | 70 | 1019.0 |
| 20260507202506 | 67 | 80 | 0.9 | 0.9 | 0.00 | 0.00 | 0.00 | 70 | 1019.0 |
| 20260507202006 | 67 | 48 | 0.9 | 1.7 | 0.00 | 0.00 | 0.00 | 70 | 1018.9 |
| 20260507201506 | 67 | 18 | 1.7 | 1.7 | 0.00 | 0.00 | 0.00 | 70 | 1019.1 |
| 20260507200505 | 67 | 5 | 1.7 | 2.6 | 0.00 | 0.00 | 0.00 | 70 | 1018.8 |
| 20260507200005 | 67 | 242 | 1.7 | 2.6 | 0.00 | 0.00 | 0.00 | 70 | 1018.8 |
| 20260507195506 | 67 | 230 | 1.7 | 2.6 | 0.00 | 0.00 | 0.00 | 70 | 1019.0 |
| 20260507195006 | 67 | 233 | 1.7 | 3.5 | 0.00 | 0.00 | 0.00 | 70 | 1018.8 |
| 20260507194505 | 67 | 236 | 2.6 | 3.5 | 0.00 | 0.00 | 0.00 | 70 | 1018.9 |
| 20260507194006 | 67 | 234 | 2.6 | 3.5 | 0.00 | 0.00 | 0.00 | 70 | 1019.0 |
| 20260507193506 | 67 | 231 | 2.6 | 3.5 | 0.00 | 0.00 | 0.00 | 70 | 1018.8 |
| 20260507193005 | 67 | 226 | 2.6 | 3.5 | 0.00 | 0.00 | 0.00 | 70 | 1018.7 |
| 20260507192505 | 67 | 218 | 1.7 | 2.6 | 0.00 | 0.00 | 0.00 | 69 | 1018.6 |
| 20260507192006 | 67 | 188 | 1.7 | 2.6 | 0.00 | 0.00 | 0.00 | 70 | 1018.8 |
| 20260507191505 | 67 | 167 | 1.7 | 2.6 | 0.00 | 0.00 | 0.00 | 70 | 1018.7 |
| 20260507190506 | 67 | 110 | 1.7 | 2.6 | 0.00 | 0.00 | 0.00 | 70 | 1018.5 |
| 20260507190006 | 67 | 177 | 1.7 | 2.6 | 0.00 | 0.00 | 0.00 | 70 | 1018.5 |
| 20260507185505 | 67 | 211 | 1.7 | 2.6 | 0.00 | 0.00 | 0.00 | 70 | 1018.5 |
| 20260507185006 | 67 | 118 | 1.7 | 1.7 | 0.00 | 0.00 | 0.00 | 70 | 1018.5 |
| 20260507183507 | 67 | 75 | 1.7 | 2.6 | 0.00 | 0.00 | 0.00 | 70 | 1018.1 |
| 20260507182506 | 68 | 45 | 1.7 | 2.6 | 0.00 | 0.00 | 0.00 | 70 | 1017.9 |
| 20260507182005 | 68 | 58 | 1.7 | 4.3 | 0.00 | 0.00 | 0.00 | 70 | 1017.7 |
| 20260507181506 | 68 | 154 | 2.6 | 4.3 | 0.00 | 0.00 | 0.00 | 71 | 1017.6 |
| 20260507181006 | 68 | 82 | 2.6 | 4.3 | 0.00 | 0.00 | 0.00 | 70 | 1017.4 |
| 20260507180514 | 68 | 96 | 3.5 | 4.3 | 0.00 | 0.00 | 0.00 | 70 | 1017.6 |
| 20260507180006 | 68 | 111 | 3.5 | 4.3 | 0.00 | 0.00 | 0.00 | 69 | 1017.7 |
| 20260507175506 | 68 | 101 | 3.5 | 4.3 | 0.00 | 0.00 | 0.00 | 68 | 1017.6 |
| 20260507174505 | 69 | 85 | 3.5 | 5.2 | 0.00 | 0.00 | 0.00 | 67 | 1017.7 |
| 20260507173506 | 69 | 89 | 2.6 | 4.3 | 0.00 | 0.00 | 0.00 | 67 | 1017.7 |
| 20260507172506 | 69 | 87 | 3.5 | 5.2 | 0.00 | 0.00 | 0.00 | 66 | 1017.8 |
| 20260507172006 | 69 | 84 | 3.5 | 6.1 | 0.00 | 0.00 | 0.00 | 66 | 1017.8 |
| 20260507171007 | 70 | 127 | 4.3 | 6.1 | 0.00 | 0.00 | 0.00 | 65 | 1017.6 |
| 20260507170506 | 70 | 117 | 5.2 | 6.1 | 0.00 | 0.00 | 0.00 | 65 | 1017.6 |
| 20260507170006 | 71 | 90 | 3.5 | 5.2 | 0.00 | 0.00 | 0.00 | 65 | 1017.5 |
| 20260507165505 | 71 | 88 | 3.5 | 4.3 | 0.00 | 0.00 | 0.00 | 65 | 1017.9 |
| 20260507165006 | 71 | 109 | 4.3 | 4.3 | 0.00 | 0.00 | 0.00 | 64 | 1017.7 |
| 20260507164505 | 71 | 110 | 3.5 | 6.1 | 0.00 | 0.00 | 0.00 | 62 | 1018.0 |
| 20260507164005 | 72 | 112 | 4.3 | 6.1 | 0.00 | 0.00 | 0.00 | 62 | 1017.8 |
| 20260507163505 | 72 | 111 | 4.3 | 6.1 | 0.00 | 0.00 | 0.00 | 60 | 1017.6 |
| 20260507163006 | 72 | 101 | 4.3 | 6.1 | 0.00 | 0.00 | 0.00 | 59 | 1017.6 |
| 20260507162505 | 73 | 124 | 5.2 | 6.1 | 0.00 | 0.00 | 0.00 | 55 | 1017.6 |
| 20260507162006 | 73 | 106 | 5.2 | 7.0 | 0.00 | 0.00 | 0.00 | 54 | 1017.6 |
| 20260507160505 | 74 | 86 | 4.3 | 7.0 | 0.00 | 0.00 | 0.00 | 52 | 1017.6 |
| 20260507160006 | 74 | 94 | 5.2 | 7.0 | 0.00 | 0.00 | 0.00 | 52 | 1017.7 |
| 20260507155506 | 74 | 99 | 5.2 | 7.0 | 0.00 | 0.00 | 0.00 | 53 | 1017.5 |
| 20260507155005 | 74 | 86 | 5.2 | 6.1 | 0.00 | 0.00 | 0.00 | 53 | 1017.6 |
| 20260507154505 | 74 | 100 | 5.2 | 7.0 | 0.00 | 0.00 | 0.00 | 53 | 1017.5 |
| 20260507154007 | 74 | 110 | 5.2 | 7.0 | 0.00 | 0.00 | 0.00 | 54 | 1017.5 |
| 20260507153505 | 74 | 103 | 5.2 | 6.1 | 0.00 | 0.00 | 0.00 | 55 | 1017.5 |
| 20260507153005 | 74 | 117 | 5.2 | 7.8 | 0.00 | 0.00 | 0.00 | 55 | 1017.4 |
| 20260507151505 | 74 | 80 | 6.1 | 7.0 | 0.00 | 0.00 | 0.00 | 54 | 1017.5 |
| 20260507150006 | 75 | 118 | 5.2 | 7.8 | 0.00 | 0.00 | 0.00 | 50 | 1017.6 |
| 20260507145005 | 75 | 99 | 7.0 | 8.7 | 0.00 | 0.00 | 0.00 | 48 | 1017.6 |
| 20260507144505 | 75 | 95 | 7.0 | 8.7 | 0.00 | 0.00 | 0.00 | 47 | 1017.4 |
| 20260507144015 | 76 | 105 | 6.1 | 7.8 | 0.00 | 0.00 | 0.00 | 47 | 1017.5 |
| 20260507143505 | 76 | 112 | 7.0 | 7.8 | 0.00 | 0.00 | 0.00 | 45 | 1017.4 |
| 20260507143005 | 76 | 112 | 7.0 | 9.6 | 0.00 | 0.00 | 0.00 | 45 | 1017.3 |
| 20260507142005 | 77 | 85 | 6.1 | 7.8 | 0.00 | 0.00 | 0.00 | 45 | 1017.6 |
| 20260507135506 | 78 | 128 | 5.2 | 7.8 | 0.00 | 0.00 | 0.00 | 43 | 1017.6 |
| 20260507135005 | 78 | 157 | 6.1 | 8.7 | 0.00 | 0.00 | 0.00 | 42 | 1017.5 |
| 20260507134505 | 78 | 171 | 6.1 | 8.7 | 0.00 | 0.00 | 0.00 | 40 | 1017.5 |
| 20260507134019 | 79 | 83 | 5.2 | 7.0 | 0.00 | 0.00 | 0.00 | 39 | 1017.4 |
| 20260507133505 | 79 | 112 | 5.2 | 6.1 | 0.00 | 0.00 | 0.00 | 38 | 1017.5 |
| 20260507133006 | 80 | 154 | 5.2 | 6.1 | 0.00 | 0.00 | 0.00 | 37 | 1017.5 |
| 20260507132505 | 80 | 141 | 4.3 | 6.1 | 0.00 | 0.00 | 0.00 | 36 | 1017.3 |
| 20260507131006 | 80 | 109 | 4.3 | 6.1 | 0.00 | 0.00 | 0.00 | 36 | 1017.4 |
| 20260507130505 | 80 | 134 | 4.3 | 6.1 | 0.00 | 0.00 | 0.00 | 36 | 1017.5 |
| 20260507130005 | 80 | 148 | 4.3 | 6.1 | 0.00 | 0.00 | 0.00 | 36 | 1017.5 |
| 20260507125006 | 80 | 113 | 3.5 | 4.3 | 0.00 | 0.00 | 0.00 | 36 | 1017.3 |
| 20260507124505 | 80 | 111 | 4.3 | 7.0 | 0.00 | 0.00 | 0.00 | 35 | 1017.6 |
| 20260507124005 | 79 | 104 | 6.1 | 7.8 | 0.00 | 0.00 | 0.00 | 35 | 1017.5 |
| 20260507123506 | 79 | 82 | 6.1 | 7.8 | 0.00 | 0.00 | 0.00 | 32 | 1017.7 |
| 20260507123005 | 79 | 90 | 4.3 | 7.8 | 0.00 | 0.00 | 0.00 | 31 | 1017.8 |
| 20260507122006 | 79 | 135 | 3.5 | 6.1 | 0.00 | 0.00 | 0.00 | 33 | 1017.8 |
| 20260507121505 | 79 | 107 | 3.5 | 6.1 | 0.00 | 0.00 | 0.00 | 35 | 1018.0 |
| 20260507121005 | 78 | 135 | 4.3 | 5.2 | 0.00 | 0.00 | 0.00 | 36 | 1017.9 |
| 20260507120505 | 77 | 100 | 3.5 | 5.2 | 0.00 | 0.00 | 0.00 | 36 | 1018.1 |
| 20260507120006 | 77 | 95 | 3.5 | 4.3 | 0.00 | 0.00 | 0.00 | 39 | 1017.9 |
| 20260507115505 | 76 | 86 | 4.3 | 5.2 | 0.00 | 0.00 | 0.00 | 40 | 1017.9 |
| 20260507114506 | 76 | 93 | 3.5 | 5.2 | 0.00 | 0.00 | 0.00 | 42 | 1018.1 |
| 20260507114005 | 76 | 94 | 3.5 | 5.2 | 0.00 | 0.00 | 0.00 | 42 | 1018.1 |
| 20260507113505 | 76 | 80 | 2.6 | 4.3 | 0.00 | 0.00 | 0.00 | 44 | 1018.2 |
| 20260507113006 | 76 | 104 | 4.3 | 6.1 | 0.00 | 0.00 | 0.00 | 44 | 1018.2 |
| 20260507112505 | 76 | 117 | 4.3 | 6.1 | 0.00 | 0.00 | 0.00 | 44 | 1018.1 |
| 20260507112005 | 76 | 122 | 3.5 | 6.1 | 0.00 | 0.00 | 0.00 | 45 | 1017.9 |
| 20260507111519 | 76 | 134 | 5.2 | 6.1 | 0.00 | 0.00 | 0.00 | 45 | 1018.1 |
| 20260507111005 | 76 | 126 | 5.2 | 6.1 | 0.00 | 0.00 | 0.00 | 45 | 1018.3 |
| 20260507110505 | 76 | 95 | 5.2 | 6.1 | 0.00 | 0.00 | 0.00 | 45 | 1018.2 |
| 20260507110006 | 77 | 90 | 3.5 | 6.1 | 0.00 | 0.00 | 0.00 | 44 | 1018.4 |
| 20260507105505 | 78 | 113 | 2.6 | 6.1 | 0.00 | 0.00 | 0.00 | 42 | 1018.2 |
| 20260507105005 | 77 | 138 | 2.6 | 2.6 | 0.00 | 0.00 | 0.00 | 42 | 1018.4 |
| 20260507104509 | 77 | 160 | 2.6 | 4.3 | 0.00 | 0.00 | 0.00 | 42 | 1018.5 |
| 20260507104005 | 77 | 157 | 2.6 | 4.3 | 0.00 | 0.00 | 0.00 | 42 | 1018.5 |
| 20260507103505 | 77 | 161 | 2.6 | 5.2 | 0.00 | 0.00 | 0.00 | 42 | 1018.3 |
| 20260507103006 | 76 | 139 | 2.6 | 5.2 | 0.00 | 0.00 | 0.00 | 41 | 1018.2 |
| 20260507102505 | 76 | 99 | 1.7 | 4.3 | 0.00 | 0.00 | 0.00 | 41 | 1018.3 |
| 20260507101507 | 76 | 205 | 3.5 | 4.3 | 0.00 | 0.00 | 0.00 | 38 | 1018.2 |
| 20260507101005 | 77 | 190 | 2.6 | 4.3 | 0.00 | 0.00 | 0.00 | 38 | 1018.0 |
| 20260507100509 | 77 | 174 | 2.6 | 3.5 | 0.00 | 0.00 | 0.00 | 39 | 1018.0 |
| 20260507100005 | 77 | 162 | 2.6 | 3.5 | 0.00 | 0.00 | 0.00 | 40 | 1018.1 |
| 20260507095505 | 76 | 149 | 2.6 | 3.5 | 0.00 | 0.00 | 0.00 | 41 | 1018.0 |
| 20260507094505 | 75 | 191 | 2.6 | 3.5 | 0.00 | 0.00 | 0.00 | 45 | 1018.0 |
| 20260507094005 | 74 | 213 | 3.5 | 4.3 | 0.00 | 0.00 | 0.00 | 45 | 1018.0 |
| 20260507093506 | 75 | 199 | 2.6 | 4.3 | 0.00 | 0.00 | 0.00 | 43 | 1017.8 |
| 20260507093009 | 74 | 202 | 1.7 | 2.6 | 0.00 | 0.00 | 0.00 | 45 | 1018.1 |
| 20260507092505 | 73 | 209 | 3.5 | 5.2 | 0.00 | 0.00 | 0.00 | 45 | 1018.2 |
| 20260507091506 | 72 | 233 | 3.5 | 4.3 | 0.00 | 0.00 | 0.00 | 49 | 1018.3 |
| 20260507091006 | 72 | 226 | 3.5 | 4.3 | 0.00 | 0.00 | 0.00 | 48 | 1018.0 |
| 20260507090505 | 72 | 214 | 3.5 | 4.3 | 0.00 | 0.00 | 0.00 | 48 | 1018.3 |
| 20260507090006 | 72 | 218 | 2.6 | 4.3 | 0.00 | 0.00 | 0.00 | 47 | 1018.2 |
| 20260507085506 | 72 | 238 | 3.5 | 4.3 | 0.00 | 0.00 | 0.00 | 47 | 1018.1 |
| 20260507085008 | 72 | 247 | 2.6 | 4.3 | 0.00 | 0.00 | 0.00 | 47 | 1018.0 |
| 20260507084005 | 71 | 228 | 2.6 | 4.3 | 0.00 | 0.00 | 0.00 | 47 | 1018.1 |
| 20260507083506 | 71 | 214 | 2.6 | 4.3 | 0.00 | 0.00 | 0.00 | 47 | 1017.8 |
| 20260507083006 | 72 | 208 | 2.6 | 4.3 | 0.00 | 0.00 | 0.00 | 47 | 1017.9 |
| 20260507082505 | 72 | 178 | 2.6 | 3.5 | 0.00 | 0.00 | 0.00 | 46 | 1017.8 |
| 20260507082005 | 72 | 157 | 2.6 | 3.5 | 0.00 | 0.00 | 0.00 | 46 | 1018.0 |
| 20260507081505 | 72 | 166 | 2.6 | 3.5 | 0.00 | 0.00 | 0.00 | 46 | 1017.9 |
| 20260507081019 | 72 | 177 | 2.6 | 3.5 | 0.00 | 0.00 | 0.00 | 43 | 1017.8 |
| 20260507080005 | 72 | 149 | 1.7 | 2.6 | 0.00 | 0.00 | 0.00 | 47 | 1018.0 |
| 20260507075005 | 70 | 197 | 2.6 | 2.6 | 0.00 | 0.00 | 0.00 | 48 | 1018.1 |
| 20260507074505 | 69 | 200 | 1.7 | 2.6 | 0.00 | 0.00 | 0.00 | 48 | 1017.9 |
| 20260507074005 | 69 | 173 | 2.6 | 4.3 | 0.00 | 0.00 | 0.00 | 49 | 1017.8 |
| 20260507073506 | 69 | 188 | 3.5 | 5.2 | 0.00 | 0.00 | 0.00 | 49 | 1017.9 |
| 20260507072505 | 69 | 207 | 2.6 | 3.5 | 0.00 | 0.00 | 0.00 | 50 | 1017.8 |
| 20260507072006 | 69 | 207 | 2.6 | 3.5 | 0.00 | 0.00 | 0.00 | 51 | 1017.9 |
| 20260507071506 | 69 | 178 | 2.6 | 2.6 | 0.00 | 0.00 | 0.00 | 51 | 1017.8 |
| 20260507071006 | 69 | 164 | 1.7 | 2.6 | 0.00 | 0.00 | 0.00 | 52 | 1018.0 |
| 20260507070505 | 69 | 181 | 1.7 | 2.6 | 0.00 | 0.00 | 0.00 | 54 | 1017.7 |
| 20260507065505 | 66 | 211 | 3.5 | 4.3 | 0.00 | 0.00 | 0.00 | 57 | 1017.8 |
| 20260507065006 | 65 | 199 | 3.5 | 4.3 | 0.00 | 0.00 | 0.00 | 57 | 1017.9 |
| 20260507064005 | 65 | 191 | 1.7 | 3.5 | 0.00 | 0.00 | 0.00 | 58 | 1018.1 |
| 20260507063006 | 64 | 189 | 2.6 | 3.5 | 0.00 | 0.00 | 0.00 | 61 | 1018.2 |
| 20260507062505 | 63 | 197 | 2.6 | 2.6 | 0.00 | 0.00 | 0.00 | 66 | 1018.3 |
| 20260507061505 | 63 | 208 | 3.5 | 4.3 | 0.00 | 0.00 | 0.00 | 66 | 1018.1 |
| 20260507061005 | 63 | 206 | 3.5 | 4.3 | 0.00 | 0.00 | 0.00 | 66 | 1018.1 |
| 20260507060507 | 63 | 201 | 3.5 | 4.3 | 0.00 | 0.00 | 0.00 | 66 | 1018.2 |
| 20260507060005 | 63 | 204 | 3.5 | 4.3 | 0.00 | 0.00 | 0.00 | 66 | 1018.1 |
| 20260507054006 | 63 | 211 | 3.5 | 3.5 | 0.00 | 0.00 | 0.00 | 66 | 1017.9 |
| 20260507053505 | 63 | 220 | 2.6 | 2.6 | 0.00 | 0.00 | 0.00 | 66 | 1017.9 |
| 20260507053005 | 64 | 199 | 1.7 | 2.6 | 0.00 | 0.00 | 0.00 | 63 | 1017.5 |
| 20260507052005 | 64 | 103 | 0.9 | 1.7 | 0.00 | 0.00 | 0.00 | 64 | 1017.6 |
| 20260507051507 | 64 | 168 | 1.7 | 2.6 | 0.00 | 0.00 | 0.00 | 63 | 1017.5 |
| 20260507050505 | 64 | 176 | 1.7 | 2.6 | 0.00 | 0.00 | 0.00 | 59 | 1017.4 |
| 20260507050005 | 65 | 224 | 0.9 | 1.7 | 0.00 | 0.00 | 0.00 | 58 | 1017.3 |
| 20260507045505 | 65 | 228 | 1.7 | 1.7 | 0.00 | 0.00 | 0.00 | 58 | 1017.2 |
| 20260507045005 | 64 | 217 | 0.9 | 1.7 | 0.00 | 0.00 | 0.00 | 57 | 1017.2 |
| 20260507044005 | 63 | 51 | 0.9 | 0.9 | 0.00 | 0.00 | 0.00 | 61 | 1016.8 |
| 20260507043505 | 63 | 102 | 0.9 | 0.9 | 0.00 | 0.00 | 0.00 | 58 | 1016.9 |
| 20260507043006 | 62 | 77 | 0.9 | 1.7 | 0.00 | 0.00 | 0.00 | 58 | 1017.0 |
| 20260507042505 | 62 | 59 | 0.9 | 1.7 | 0.00 | 0.00 | 0.00 | 57 | 1017.0 |
| 20260507042005 | 62 | 80 | 0.9 | 1.7 | 0.00 | 0.00 | 0.00 | 57 | 1016.8 |
| 20260507041506 | 62 | 227 | 0.9 | 2.6 | 0.00 | 0.00 | 0.00 | 57 | 1017.1 |
| 20260507041005 | 62 | 208 | 0.9 | 2.6 | 0.00 | 0.00 | 0.00 | 57 | 1017.0 |
| 20260507040006 | 62 | 45 | 0.9 | 0.9 | 0.00 | 0.00 | 0.00 | 58 | 1017.0 |
| 20260507034505 | 62 | 10 | 0.9 | 1.7 | 0.00 | 0.00 | 0.00 | 59 | 1016.8 |
| 20260507033505 | 62 | 270 | 1.7 | 2.6 | 0.00 | 0.00 | 0.00 | 58 | 1017.0 |
| 20260507033005 | 62 | 287 | 0.9 | 2.6 | 0.00 | 0.00 | 0.00 | 61 | 1016.8 |
| 20260507031506 | 61 | 52 | 1.7 | 1.7 | 0.00 | 0.00 | 0.00 | 61 | 1016.9 |
| 20260507031005 | 60 | 59 | 0.9 | 1.7 | 0.00 | 0.00 | 0.00 | 61 | 1016.8 |
| 20260507030505 | 60 | 72 | 0.9 | 1.7 | 0.00 | 0.00 | 0.00 | 63 | 1016.8 |
| 20260507025505 | 60 | 145 | 0.9 | 0.9 | 0.00 | 0.00 | 0.00 | 62 | 1016.7 |
| 20260507024505 | 61 | 281 | 0.9 | 1.7 | 0.00 | 0.00 | 0.00 | 64 | 1016.7 |
| 20260507024008 | 62 | 3 | 0.9 | 1.7 | 0.00 | 0.00 | 0.00 | 62 | 1016.5 |
| 20260507023506 | 63 | 54 | 1.7 | 2.6 | 0.00 | 0.00 | 0.00 | 60 | 1016.6 |
| 20260507023005 | 63 | 74 | 1.7 | 2.6 | 0.00 | 0.00 | 0.00 | 56 | 1016.5 |
| 20260507022006 | 63 | 45 | 0.9 | 0.9 | 0.00 | 0.00 | 0.00 | 53 | 1016.5 |
| 20260507021505 | 63 | 63 | 0.9 | 0.9 | 0.00 | 0.00 | 0.00 | 55 | 1016.3 |
| 20260507021008 | 63 | 126 | 0.9 | 0.9 | 0.00 | 0.00 | 0.00 | 56 | 1016.3 |
| 20260507015506 | 63 | 46 | 0.9 | 1.7 | 0.00 | 0.00 | 0.00 | 56 | 1016.3 |
| 20260507015005 | 63 | 18 | 0.9 | 1.7 | 0.00 | 0.00 | 0.00 | 55 | 1016.4 |
| 20260507014505 | 63 | 27 | 0.9 | 1.7 | 0.00 | 0.00 | 0.00 | 54 | 1016.3 |
| 20260507013505 | 64 | 50 | 0.9 | 1.7 | 0.00 | 0.00 | 0.00 | 54 | 1016.3 |